sat.trackr.live / text

‹ back to catalog

STARLINK-11342 [DTC]

NORAD 61580 · 2024-187G

PAYLOAD ACTIVE UNKNOWN

§ Identity

Operator
Country
US
Launch date
2024-10-18
Launch site
AFETR
Launch vehicle
Mass (kg)
RCS (m²)

Purposes: comms

External: N2YO · Heavens-Above · Gunter

§ Orbital elements

Epoch: 2026-05-24T19:58:03.515232Z

Period
91.74 min
Inclination
53.1595°
Eccentricity
0.0000792
Mean motion
15.69715853 rev/d
Perigee alt
359.2 km
Apogee alt
360.2 km
Semi-major
6,737.8 km
B*
5.2673e-6
RAAN
280.5781°
Arg perigee
58.1099°
Mean anomaly
301.9996°
Rev number
9,276

§ Raw data

STARLINK-11342 [DTC]1 61580U 24187G   26144.83198513  .00000050  00000+0  52673-5 0  99992 61580  53.1595 280.5781 0000792  58.1099 301.9996 15.69715853 92762

JSON: /api/v1/satellites/61580 · /tle

For live sub-satellite position, see the globe view (requires WebGL).

§ Visibility from observer

Set your observer location to see the next 7 days of passes ≥ 10°. The values pass through the URL so the page stays shareable.

No JS? Fill the form by hand. The geolocation button needs JavaScript.